Retour au catalogue

FENGYUN 1C DEB

ActifSSO
NORAD 31150·DEBRIS·🇨🇳 China

Lancé May 10, 1999 depuis Taiyuan Satellite Launch Center

Loading…

Prochains Passages (prochaines 24 heures)

TLE

FraisSource: Space-Track

Époque: Sep 14, 2026, 11:40 UTC

1 31150U 99025BHC 26257.48640616  .00000131  00000-0  93396-4 0  9991
2 31150  98.6859 262.8610 0016068  96.8924  56.9153 14.12876678  1876

Suivez FENGYUN 1C DEB en temps réel avec AllMySat

Download on the App Store